Terminal Aerodrome Forecast
Issued by NWS

Home | Current Version | Previous Version | Text Only | Print | Product List | Glossary On
Versions: 1 2 3 4 5 6 7 8 9 10 11 12 13 14 15 16 17 18 19 20 21 22 23 24 25 26 27 28 29 30 31 32 33 34 35 36 37
000
FTUS43 KDLH 051120
TAFHIB
TAF
KHIB 051120Z 0512/0612 14004KT 5SM BR FEW030 SCT200 WS015/22030KT
      TEMPO 0512/0514 2SM BR BKN030
     FM051400 17005KT P6SM SCT250
     FM051700 19009G21KT P6SM VCTS SCT050CB
     FM060000 22006KT 4SM -TSRA BKN030CB
     FM060300 21005KT 3SM RA SCT015 BKN025=

USA.gov is the U.S. government's official web portal to all federal, state and local government web resources and services.